Location: Newark
(44.5425°N, 10.7801°E)
Time: 23:25:40
(UTC+00:00)

N. Korean satellite - Pass Details

Date: 28 January 2020
Orbit: 456 x 505 km, 97.2° (Epoch: 19 February)

Event Time Altitude Azimuth Distance (km) Brightness Sun altitude
Rises 05:59:32 0° 358° (N) 2,547 10.0 -7.6°
Reaches altitude 10° 06:01:54 10° 343° (NNW) 1,672 8.9 -7.2°
Maximum altitude 06:04:43 22° 291° (WNW) 1,114 7.8 -6.8°
Drops below altitude 10° 06:07:33 10° 240° (WSW) 1,683 8.9 -6.3°
Sets 06:09:56 0° 225° (SW) 2,569 10.0 -5.9°
